Regional Weather Roundup
Issued by NWS

Home | Current Version | Previous Version | Graphics & Text | Print | Product List | Glossary On
Versions: 1 2 3 4 5 6 7 8 9 10 11 12 13 14 15 16 17 18 19 20 21 22 23 24 25 26 27 28 29 30 31 32 33 34 35 36 37 38 39 40 41 42 43 44 45 46 47 48 49 50
975
ASUS45 KBOU 280607
RWRCO

WEATHER ROUNDUP FOR COLORADO
NATIONAL WEATHER SERVICE DENVER/BOULDER CO
1200 AM MDT THU JUL 28 2016

NOTE: "FAIR" INDICATES FEW OR NO CLOUDS BELOW 12000 FEET WITH NO
SIGNIFICANT WEATHER AND/OR OBSTRUCTIONS TO VISIBILITY.

COZ001>005-013-030-031-280700-
...NORTHWEST COLORADO...

CITY           SKY/WX    TMP DP  RH WIND       PRES   REMARKS
CRAIG          FAIR      55  38  52 E6        30.23R
HAYDEN         FAIR      61  27  27 SE7       30.24S
MEEKER         FAIR      61  38  42 CALM      30.25R
MOUNT WERNER   NOT AVBL
STEAMBOAT SPGS FAIR      60  31  34 CALM      30.28S
WALDEN         FAIR      45  30  57 SE8       30.38F
$$

COZ006>008-011-280700-
...WEST CENTRAL VALLEYS...

CITY           SKY/WX    TMP DP  RH WIND       PRES   REMARKS
GRAND JUNCTION FAIR      77  30  17 N3        30.07R
MONTROSE       FAIR      74  36  25 SE14      30.19R
EAGLE          FAIR      63  28  27 SE3       30.28S
RIFLE          FAIR      70  30  22 SE6       30.16R
DELTA          NOT AVBL
NUCLA          NOT AVBL
$$

COZ017>023-064>068-280700-
...SOUTHWEST COLORADO...

CITY           SKY/WX    TMP DP  RH WIND       PRES   REMARKS
DURANGO        FAIR      71  23  16 CALM      30.23R
CORTEZ         FAIR      65  41  41 NE7       30.19R
PAGOSA SPRINGS FAIR      67  30  25 CALM      30.35R
TELLURIDE      FAIR      60  30  32 SE5       30.51S
WOLF CREEK PAS FAIR      54  28  37 N16       30.75S
$$

COZ009-010-012-014-032>034-037-058>063-280700-
...CENTRAL COLORADO...

CITY           SKY/WX    TMP DP  RH WIND       PRES   REMARKS
ASPEN          FAIR      61  35  37 S9        30.37S
BUENA VISTA    FAIR      60  28  29 NW3       30.41R
COPPER MTN     FAIR      61  10  13 NW6       30.74S
BERTHOUD PASS  FAIR      46  32  57 CALM      30.77S
COTTONWOOD PAS FAIR      68  21  17 CALM      30.56S
GUNNISON       FAIR      61  37  41 CALM      30.40R
KREMMLING      FAIR      54  36  50 CALM      30.35S
LEADVILLE      FAIR      51  21  30 E6        30.55F
MONARCH PASS   FAIR      54  34  47 MISG      30.83F
SALIDA         FAIR      66  39  37 SW9       30.44S
SUNLIGHT       NOT AVBL
WILKERSON PASS FAIR      54  37  54 S9        30.70F
$$

COZ069>075-280700-
...SAN LUIS VALLEY/SANGRE DE CRISTO MOUNTAINS...

CITY           SKY/WX    TMP DP  RH WIND       PRES   REMARKS
ALAMOSA        FAIR      63  42  46 SE8       30.34R
LA VETA PASS   FAIR      59  43  55 SE6       30.57S
SAGUACHE       FAIR      61  34  36 N8        30.38S
$$

COZ035-036-038>040-280700-
...NORTHERN COLORADO FRONT RANGE...

CITY           SKY/WX    TMP DP  RH WIND       PRES   REMARKS
DENVER INTL AP MOCLDY    67  57  70 E10       30.21S
DMNS CITY PARK   N/A     71  56  59 N7        30.20S
AURORA         MOCLDY    71  54  55 SE12      30.22F
FRONT RANGE AP NOT AVBL
ERIE MUNI ARPT FAIR      71  53  52 CALM      30.21S
BOULDER MUN AP FAIR      73  54  49 CALM      30.22S
CENTENNIAL     MOCLDY    70  55  59 SW14      30.23S
BROOMFIELD     FAIR      72  54  53 N9        30.24F
LONGMONT       NOT AVBL
$$

COZ041-046-047-076>085-087-088-280700-
...PIKES PEAK/PALMER DIVIDE AND SOUTHERN FOOTHILLS...

CITY           SKY/WX    TMP DP  RH WIND       PRES   REMARKS
COLO. SPRINGS  FAIR      70  55  59 E5        30.29F
A. F. ACADEMY  FAIR      68  55  62 E7        30.29F
SCHRIEVER AFB  NOT AVBL
ELLICOTT       FAIR     N/A N/A N/A E10       30.27R
FALCON         NOT AVBL
FORT CARSON    FAIR      70  55  59 E5        30.25S
LIMON          FAIR      66  57  72 SE7       30.23F
MONUMENT HILL  FAIR      61  52  72 W7        30.36S
TRINIDAD       NOT AVBL
$$

COZ042>045-048>051-090-091-280700-
...NORTHEAST COLORADO...

CITY           SKY/WX    TMP DP  RH WIND       PRES   REMARKS
GREELEY ARPT   FAIR      66  59  77 NE6       30.21F
AKRON          FAIR      66  59  78 E9        30.21R
BURLINGTON     FAIR      63  59  87 SE20G31   30.20R
WRAY           NOT AVBL
STERLING       NOT AVBL
HOLYOKE        NOT AVBL
FORT MORGAN    NOT AVBL
$$

COZ086-089-092>099-280700-
...SOUTHEAST COLORADO...

CITY           SKY/WX    TMP DP  RH WIND       PRES   REMARKS
PUEBLO         FAIR      76  57  51 E9        30.14R
LA JUNTA       FAIR      76  54  46 S8        30.11F
LAMAR          FAIR      67  63  87 NE5       30.09S
SPRINGFIELD      N/A     66  60  81 SW10      30.15S
$$




USA.gov is the U.S. government's official web portal to all federal, state and local government web resources and services.